[[{"header":{"parameterUnit":"m.s-1","parameterCategory":1,"la1":30.2991,"la2":30.254,"lo1":-89.0895,"lo2":-89.0444,"dy":0.0017,"dx":0.0017,"nx":28,"ny":28,"refTime":"2024-12-26T09:00:00:Z","depth":0,"parameterNumber":2,"parameterNumberName":"U-component_of_WINDS"},"data":[0,0,0,0,0,0,0,0,0,0,0,0,0,0,0,0,0,0,0,0,0,0,0,0,0,0,0,0,0,0,0,0,0,0,0,0,0,0,0,0,0,0,0,0,0,0,0,0,0,0,0,0,0,0,0,0,0,0,-1.6661,-1.6661,0,-1.6682,-1.6682,-1.6682,-1.6659,-1.6658,-1.6657,-1.6656,-1.6676,-1.6677,-1.6679,0,0,0,0,0,0,0,0,0,0,0,0,0,-1.6599,-1.6601,-1.6661,-1.6661,-1.6662,-1.6682,-1.6682,-1.6682,-1.6659,-1.6658,-1.6657,-1.6656,-1.6676,-1.6677,-1.6679,0,0,0,0,0,0,0,0,0,0,0,0,0,-1.6624,-1.6601,-1.6661,-1.6652,-1.6652,-1.6682,-1.6682,-1.6682,-1.6659,-1.6658,-1.6656,-1.6655,-1.6675,-1.6677,-1.6679,-1.6718,0,0,-1.6685,-1.6686,0,0,0,0,0,0,0,0,-1.6622,-1.6626,-1.6653,-1.6653,-1.6652,-1.6666,-1.6668,-1.6694,-1.6659,-1.6656,-1.6656,-1.6654,-1.6674,-1.6676,-1.6683,-1.6719,-1.672,-1.6686,-1.6687,-1.6688,-1.6688,0,0,0,0,0,0,0,-1.6621,-1.6625,-1.6669,-1.6654,-1.6653,-1.6647,-1.6649,-1.6673,-1.6672,-1.6656,-1.6655,-1.6658,-1.6673,-1.6681,-1.6683,-1.672,-1.6685,-1.6687,-1.6689,-1.6689,-1.6788,-1.6789,0,0,0,0,0,0,-1.662,-1.6624,-1.6669,-1.667,-1.6634,-1.6649,-1.6651,-1.6663,-1.6672,-1.6672,-1.6659,-1.6656,-1.6678,-1.6681,-1.6684,-1.6728,-1.6688,-1.669,-1.6691,-1.6787,-1.6788,-1.679,0,0,0,0,0,0,-1.6619,-1.6624,-1.6668,-1.6646,-1.6651,-1.6651,-1.6665,-1.6664,-1.6672,-1.6674,-1.6673,-1.6666,-1.6677,-1.6681,-1.6709,-1.6728,-1.669,-1.6692,-1.6785,-1.6787,-1.6789,-1.6819,0,0,0,0,0,0,-1.6617,-1.6624,-1.664,-1.6647,-1.6653,-1.6694,-1.6666,-1.6666,-1.6675,-1.6673,-1.6681,-1.6681,-1.6676,-1.6707,-1.6711,-1.6731,-1.6694,-1.6783,-1.6786,-1.6788,-1.6816,-1.6821,-1.6826,0,0,0,0,0,-1.6615,-1.6647,-1.664,-1.6646,-1.6672,-1.6695,-1.6698,-1.6693,-1.6677,-1.6692,-1.6693,-1.6681,-1.6726,-1.671,-1.6715,-1.6735,-1.6782,-1.6785,-1.6788,-1.6813,-1.682,-1.6826,0,0,0,0,0,0,-1.6642,-1.6648,-1.6641,-1.6676,-1.6685,-1.6691,-1.671,-1.67,-1.6714,-1.671,-1.6703,-1.6705,-1.6735,-1.6738,-1.672,-1.6772,-1.6751,-1.6756,-1.6769,-1.6775,-1.678,-1.6778,-1.6696,0,0,0,0,0,-1.6652,-1.6671,-1.6675,-1.6706,-1.6711,-1.671,-1.672,-1.6714,-1.6723,-1.6727,-1.673,-1.6739,-1.6755,-1.6766,-1.6781,-1.6817,-1.6817,-1.6833,-1.6838,-1.6843,-1.6846,-1.6863,-1.6869,-1.68,-1.68,-1.68,0,0,-1.6673,-1.6679,-1.6691,-1.6712,-1.6718,-1.6736,-1.6713,-1.6734,-1.6747,-1.673,-1.6757,-1.676,-1.6769,-1.6801,-1.6815,-1.6804,-1.6865,-1.6847,-1.685,-1.6851,-1.6867,-1.6873,-1.6879,-1.6802,-1.6802,-1.6801,0,0,-1.672,-1.6727,-1.6753,-1.6759,-1.6769,-1.6768,-1.6774,-1.6782,-1.6783,-1.681,-1.6796,-1.6812,-1.6841,-1.6847,-1.6854,-1.6903,-1.6891,-1.6908,-1.6934,-1.6951,-1.6956,-1.6961,-1.6976,-1.6982,-1.6912,-1.6912,-1.6912,0,-1.6744,-1.6772,-1.6767,-1.6788,-1.6797,-1.6782,-1.6807,-1.6814,-1.6829,-1.6834,-1.6823,-1.6857,-1.6862,-1.6894,-1.6906,-1.6913,-1.6919,-1.6906,-1.6956,-1.6961,-1.6965,-1.6979,-1.6985,-1.6913,-1.6913,-1.6913,-1.6913,0,-1.6801,-1.682,-1.684,-1.6853,-1.6864,-1.6888,-1.6885,-1.6896,-1.689,-1.689,-1.6917,-1.6923,-1.6938,-1.6946,-1.694,-1.6977,-1.6969,-1.6957,-1.6935,-1.6973,-1.6987,-1.6992,-1.6916,-1.6915,-1.6915,-1.6914,0,0,-1.6864,-1.6874,-1.6881,-1.6886,-1.6896,-1.6911,-1.6933,-1.6948,-1.6957,-1.6968,-1.6984,-1.7009,-1.6997,-1.7005,-1.7,-1.7015,-1.7051,-1.7001,-1.7001,-1.7008,-1.7088,-1.7096,-1.7102,-1.7044,-1.7045,-1.7046,-1.7087,0,-1.6909,-1.6947,-1.6942,-1.6979,-1.6995,-1.6982,-1.7001,-1.7008,-1.7009,-1.7022,-1.7023,-1.7039,-1.7024,-1.7028,-1.7043,-1.7043,-1.7066,-1.7041,-1.7058,-1.7059,-1.7053,-1.711,-1.7118,-1.7156,-1.7092,-1.7093,-1.7094,0,-1.6967,-1.6979,-1.7016,-1.7022,-1.7029,-1.7046,-1.7058,-1.7072,-1.708,-1.7079,-1.7088,-1.708,-1.7101,-1.7081,-1.7108,-1.7091,-1.7098,-1.7099,-1.7101,-1.71,-1.7077,-1.7108,-1.7169,-1.7173,-1.7102,-1.7102,-1.7101,0,-1.7006,-1.7032,-1.7057,-1.7062,-1.707,-1.7082,-1.7086,-1.7093,-1.7101,-1.7112,-1.7117,-1.7131,-1.7138,-1.7148,-1.7144,-1.713,-1.7171,-1.7151,-1.717,-1.717,-1.7177,-1.7176,-1.7237,-1.7186,-1.7186,-1.7186,-1.7186,0,-1.7055,-1.7078,-1.7074,-1.709,-1.7114,-1.7109,-1.7133,-1.7135,-1.7141,-1.7156,-1.7146,-1.716,-1.7155,-1.7168,-1.7165,-1.7187,-1.7191,-1.719,-1.7188,-1.7189,-1.7189,-1.7192,-1.7188,-1.7187,-1.7187,-1.7187,-1.7187,0,-1.7103,-1.7101,-1.7127,-1.7132,-1.7134,-1.7152,-1.7156,-1.717,-1.717,-1.7188,-1.7192,-1.7192,-1.7207,-1.7204,-1.7221,-1.7219,-1.7246,-1.7243,-1.7243,-1.7241,-1.7259,-1.7257,-1.7322,-1.7329,-1.7276,-1.7276,-1.7277,0,-1.7133,-1.715,-1.7157,-1.7166,-1.717,-1.7186,-1.7194,-1.7189,-1.7198,-1.7208,-1.722,-1.7235,-1.7246,-1.727,-1.7271,-1.7283,-1.7279,-1.7301,-1.728,-1.728,-1.7276,-1.7274,-1.7275,-1.7304,-1.7305,-1.7305,-1.7305,0,-1.7186,-1.7184,-1.7197,-1.721,-1.722,-1.723,-1.7238,-1.7246,-1.7242,-1.7253,-1.7268,-1.7276,-1.7293,-1.7307,-1.7318,-1.7322,-1.7312,-1.7312,-1.7317,-1.7317,-1.7315,-1.7314,-1.7251,-1.731,-1.731,-1.7309,-1.7309,-1.7309,-1.7224,-1.7238,-1.7245,-1.7259,-1.7265,-1.7272,-1.7285,-1.7286,-1.7299,-1.7312,-1.7309,-1.7325,-1.7332,-1.7346,-1.7351,-1.7363,-1.7355,-1.7362,-1.7363,-1.7364,-1.7365,-1.7315,-1.7366,-1.7365,-1.7365,-1.7365,-1.7365,0,-1.7275,-1.7278,-1.7292,-1.7303,-1.7314,-1.7305,-1.7314,-1.7323,-1.7338,-1.7345,-1.7356,-1.7372,-1.7385,-1.7387,-1.7399,-1.7409,-1.7405,-1.7412,-1.741,-1.741,-1.7373,-1.7367,-1.7415,-1.7415,-1.7415,-1.7415,-1.7415,-1.7415,-1.7302,-1.7324,-1.7323,-1.7348,-1.7351,-1.7367,-1.7372,-1.7379,-1.7384,-1.7403,-1.7414,-1.7415,-1.7419,-1.7432,-1.7443,-1.7443,-1.7447,-1.7455,-1.7453,-1.7418,-1.7413,-1.7408,-1.7402,-1.7456,-1.7457,-1.7489,-1.7489,-1.7489]},{"header":{"parameterUnit":"m.s-1","parameterCategory":1,"la1":30.2991,"la2":30.254,"lo1":-89.0895,"lo2":-89.0444,"dy":0.0017,"dx":0.0017,"nx":28,"ny":28,"refTime":"2024-12-26T09:00:00:Z","depth":0,"parameterNumber":3,"parameterNumberName":"V-component_of_WINDS"},"data":[0,0,0,0,0,0,0,0,0,0,0,0,0,0,0,0,0,0,0,0,0,0,0,0,0,0,0,0,0,0,0,0,0,0,0,0,0,0,0,0,0,0,0,0,0,0,0,0,0,0,0,0,0,0,0,0,0,0,3.0327,3.0326,0,3.0262,3.0262,3.0261,3.0242,3.0242,3.0243,3.0243,3.0172,3.017,3.0168,0,0,0,0,0,0,0,0,0,0,0,0,0,3.0429,3.0428,3.0327,3.0326,3.0325,3.0263,3.0262,3.0261,3.0242,3.0242,3.0243,3.0243,3.0173,3.017,3.0168,0,0,0,0,0,0,0,0,0,0,0,0,0,3.0377,3.0427,3.0327,3.0308,3.0306,3.0263,3.0262,3.026,3.0242,3.0242,3.0243,3.0243,3.0174,3.0171,3.0167,3.0136,0,0,3.0157,3.0156,0,0,0,0,0,0,0,0,3.038,3.0373,3.0312,3.0309,3.0307,3.0261,3.0272,3.0219,3.0242,3.0266,3.0243,3.0243,3.0201,3.0195,3.0182,3.0133,3.013,3.0157,3.0155,3.0153,3.0153,0,0,0,0,0,0,0,3.0384,3.0376,3.0301,3.0311,3.0308,3.0302,3.0295,3.0262,3.0231,3.0264,3.0262,3.0255,3.02,3.0185,3.018,3.0129,3.0157,3.0154,3.0152,3.0151,3.0054,3.0053,0,0,0,0,0,0,3.0391,3.0379,3.0303,3.0299,3.0345,3.03,3.0292,3.0275,3.0231,3.0225,3.0255,3.0255,3.0191,3.0184,3.0178,3.014,3.0153,3.015,3.0148,3.0054,3.0054,3.0053,0,0,0,0,0,0,3.0393,3.0384,3.0306,3.0339,3.0328,3.0297,3.0278,3.0273,3.0259,3.0225,3.0219,3.0246,3.0191,3.0182,3.0148,3.0137,3.0149,3.0146,3.0055,3.0054,3.0053,3.0064,0,0,0,0,0,0,3.0396,3.0385,3.0374,3.0339,3.0327,3.0278,3.0278,3.0272,3.0254,3.0253,3.0215,3.0209,3.0191,3.0153,3.0144,3.0133,3.0143,3.0056,3.0055,3.0054,3.0065,3.0064,3.0063,0,0,0,0,0,3.04,3.0378,3.0373,3.0364,3.0312,3.0277,3.027,3.0251,3.0253,3.0241,3.022,3.021,3.014,3.0149,3.014,3.0127,3.0056,3.0055,3.0054,3.0065,3.0064,3.0063,0,0,0,0,0,0,3.041,3.0373,3.0367,3.0334,3.0309,3.0274,3.0258,3.025,3.0223,3.0223,3.0198,3.019,3.0157,3.0139,3.015,3.0096,3.0098,3.0095,3.011,3.0109,3.0108,3.0113,3.0141,0,0,0,0,0,3.0409,3.0386,3.0353,3.0327,3.0315,3.0289,3.0273,3.0261,3.0233,3.0222,3.0198,3.0171,3.0143,3.0124,3.0096,3.0062,3.0054,3.0049,3.0048,3.0048,3.0045,3.0027,3.0025,3.0049,3.0049,3.0049,0,0,3.0406,3.0382,3.0368,3.0328,3.0308,3.0283,3.028,3.0253,3.0235,3.0217,3.0184,3.0166,3.0134,3.01,3.0083,3.0083,3.0037,3.0046,3.0046,3.0043,3.0025,3.0023,3.0021,3.0048,3.0048,3.0048,0,0,3.0387,3.0367,3.0343,3.0324,3.0294,3.0277,3.0271,3.0238,3.0226,3.0192,3.018,3.0156,3.0108,3.0087,3.0069,3.0045,3.0036,3.0036,3.0032,3.0015,3.0013,3.0011,3.0004,3.0001,3.0034,3.0034,3.0034,0,3.0386,3.035,3.0332,3.0307,3.029,3.0276,3.0252,3.0233,3.0194,3.0182,3.0183,3.0124,3.0101,3.0063,3.0058,3.0043,3.0036,3.004,3.0015,3.0013,3.0011,3.0004,3.0001,3.0034,3.0034,3.0034,3.0034,0,3.0351,3.0326,3.031,3.0276,3.0257,3.0233,3.0211,3.0193,3.0183,3.0166,3.0133,3.0106,3.0073,3.0063,3.0051,3.0023,3.0024,3.002,3.0021,3.001,3.0002,2.9999,3.0035,3.0035,3.0035,3.0035,0,0,3.0335,3.0294,3.0289,3.0274,3.0241,3.0221,3.0196,3.0166,3.0152,3.0126,3.0105,3.0066,3.0063,3.0043,3.0029,3.0014,2.9998,3.0012,3.0011,3.0011,2.9967,2.9971,2.9967,2.9992,2.9992,2.9991,2.997,0,3.0313,3.027,3.0254,3.0218,3.0196,3.0183,3.0161,3.0138,3.0122,3.0099,3.0081,3.0054,3.0052,3.004,3.0025,3.0004,2.9989,3.0005,2.9972,2.9971,2.9981,2.9963,2.9966,2.9948,2.9967,2.9966,2.9966,0,3.0281,3.0259,3.0221,3.0193,3.0183,3.0164,3.0136,3.0115,3.0089,3.0078,3.0058,3.0045,3.0018,3.0022,2.9984,2.9995,2.9981,2.9969,2.9967,2.9964,2.9968,2.996,2.9941,2.9938,2.9961,2.9961,2.9962,0,3.0276,3.0235,3.0208,3.0196,3.0162,3.0149,3.0134,3.0108,3.0092,3.0067,3.0056,3.0028,3.0013,2.9991,2.9971,2.9975,2.9936,2.9937,2.9926,2.9927,2.9918,2.9919,2.9898,2.9908,2.9908,2.9908,2.9908,0,3.0253,3.0231,3.0206,3.0189,3.0164,3.0146,3.0121,3.0105,3.0083,3.0062,3.0048,3.0029,3.0004,2.9982,2.9966,2.9938,2.9931,2.9921,2.9917,2.9923,2.9924,2.9913,2.9914,2.9908,2.9908,2.9908,2.9908,0,3.0243,3.0225,3.0195,3.0166,3.0158,3.0141,3.0116,3.0099,3.0083,3.0057,3.005,3.0024,2.9997,2.9976,2.994,2.9929,2.99,2.9895,2.991,2.9908,2.9899,2.99,2.9869,2.9865,2.9878,2.9878,2.9878,0,3.023,3.0213,3.0183,3.017,3.0156,3.0133,3.0117,3.0099,3.0082,3.0053,3.0039,3.0012,2.9989,2.9946,2.9924,2.9897,2.9891,2.9883,2.9887,2.9894,2.9892,2.9894,2.9892,2.9882,2.9882,2.9882,2.9882,0,3.0209,3.0202,3.018,3.0156,3.0139,3.0118,3.0097,3.0086,3.0064,3.0046,3.002,3.0002,2.9967,2.994,2.9911,2.9894,2.9884,2.9881,2.9877,2.9883,2.9892,2.9888,2.9909,2.9882,2.9882,2.9882,2.9882,2.9882,3.0198,3.0183,3.0161,3.0137,3.012,3.0102,3.0085,3.0068,3.0046,3.0017,3.0007,2.998,2.9955,2.9916,2.9899,2.9877,2.9876,2.987,2.9869,2.9868,2.9869,2.9896,2.9871,2.9871,2.9871,2.9871,2.9871,0,3.0177,3.0163,3.0142,3.0115,3.0096,3.0091,3.0068,3.0053,3.003,3.0008,2.9987,2.9957,2.9931,2.9908,2.988,2.9867,2.9862,2.9861,2.9862,2.9858,2.9871,2.9877,2.9866,2.9866,2.9866,2.9866,2.9866,2.9866,3.0165,3.014,3.013,3.0097,3.0082,3.0057,3.0044,3.0027,3.001,2.9978,2.9957,2.9942,2.992,2.9892,2.9868,2.9861,2.9852,2.9852,2.9844,2.9856,2.9857,2.9858,2.9864,2.985,2.985,2.9834,2.9834,2.9834]}]]